Location: Córrego Montividiu
(13.2496°S, 48.8603°W)
Time: 12:02:52
(UTC+00:00)

Cosmos 2266 Rocket - Pass Details

Date: 11 March 2026
Orbit: 933 x 1007 km, 82.9° (Epoch: 21 April)

Event Time Altitude Azimuth Distance (km) Brightness Sun altitude
Rises 22:36:46 0° 184° (S) 3,611 7.1 -16.5°
Reaches altitude 10° 22:39:15 10° 183° (S) 2,669 6.4 -17.1°
Maximum altitude 22:45:22 89° 93° (E) 959 3.9 -18.6°
Drops below altitude 10° 22:51:31 10° 3° (N) 2,692 6.2 -20.1°
Sets 22:54:02 0° 3° (N) 3,645 6.9 -20.7°
